User: anonymous   Login
Location: Unspecified
(0.0000°N, 0.0000°E)
Time: 03:01:20
(UTC+00:00)
Language:

STARLINK-34683 - Orbit

View from above orbital plane
View from above orbital plane
View from above satellite
View from above satellite

Ground track
Ground track

The orbit is defined by the following mean orbital elements,

1 64857U          26145.54891075 +.00000000 +00000-0 +24830-3 0 00000
2 64857  97.4484   0.9007 0001860  82.5613 277.5825 15.05655712    07
Epoch (UTC): 25 May 2026 13:10:25
Eccentricity: 0.0001860
inclination: 97.4484°
perigee height: 548 km
apogee height: 551 km
right ascension of ascending node: 0.9007°
argument of perigee: 82.5613°
revolutions per day: 15.05655712
mean anomaly at epoch: 277.5825°

The dashed part of the orbit path shows where the satellite is in the earth's shadow,  

DLR